Find Starlink 37789

NORAD ID: 69495 Int'l Des: 2026-131 Owner: SPXS Country: US Constellation: starlink operational
LEOCIRCULARRETROGRADE

当前视图

正在加载3D地球...

About Starlink 37789

Starlink 37789 (NORAD 69495) is a starlink constellation satellite (v2 mini) launched Jun 11, 2026 by SPXS of US. It operates in LEO, CIRCULAR, RETROGRADE orbit with a mass of 575.00 kg.

即将过境

Passes for default location (London). Set your location on the main map for personalized predictions.

高度历史

Loading altitude history...

两行轨道根数

1 69495U 26131T 26208.91668981 .00073754 00000-0 22686-2 0 9994
2 69495 97.2842 230.6093 0001446 92.3904 345.4252 15.33389810 6015
Epoch: Jul 27, 2026 • Age: 11 hours

当前状态

高度 471.3 km
远地点 / 近地点 N/A
速度 7.64 km/s
星下点 42.92°N, 146.03°E
发射日期 Jun 11, 2026
运行时间 0.1 years
类型 internet

技术详情

分类 Payload
质量 575.00 kg
干质量 530.00 kg
总质量 575.00 kg
长度 0.30 m
直径 4.10 m
跨度 29.00 m
形状 Box + pan
制造商 SPXS
平台类型 Starlink V2MO
阶段状态 In Orbit
所有者/国家 SPXS/US

Most Searched